owner,sensor,date,latitude,longitude,vertical_datum,wind_speed,wind_to_direction,wind_speed_of_gust,qcFlag 
TABS,ioos:station:wmo:42045:1,2019-10-16T12:00:00Z,26.2168,-96.4998,4.0,0.23,32.5,1.31,'11111222,11111222,11111222' 
TABS,ioos:station:wmo:42045:1,2019-10-16T14:30:00Z,26.2168,-96.4998,4.0,0.08,46.1,1.79,'11111222,11111222,11111222' 
TABS,ioos:station:wmo:42045:1,2019-10-16T16:00:00Z,26.2168,-96.4998,4.0,7.54,353.1,9.04,'11111222,11111222,11111222' 
TABS,ioos:station:wmo:42045:1,2019-10-16T17:00:00Z,26.2168,-96.4998,4.0,8.4,347.1,9.67,'11111222,11111222,11111222' 
TABS,ioos:station:wmo:42045:1,2019-10-16T18:00:00Z,26.2168,-96.4998,4.0,6.85,354.8,7.9,'11111222,11111222,11111222' 
TABS,ioos:station:wmo:42045:1,2019-10-16T19:00:00Z,26.2168,-96.4998,4.0,5.94,7.9,6.86,'11111222,11111222,11111222' 
TABS,ioos:station:wmo:42045:1,2019-10-16T20:00:00Z,26.2168,-96.4998,4.0,6.76,35.8,7.7,'11111222,11111222,11111222' 
TABS,ioos:station:wmo:42045:1,2019-10-16T21:00:00Z,26.2168,-96.4998,4.0,7.38,9.7,8.66,'11111222,11111222,11111222' 
TABS,ioos:station:wmo:42045:1,2019-10-16T22:00:00Z,26.2168,-96.4998,4.0,12.24,357.5,14.58,'11111222,11111222,11111222' 
TABS,ioos:station:wmo:42045:1,2019-10-16T23:00:00Z,26.2168,-96.4998,4.0,11.65,11.6,13.69,'11111222,11111222,11111222' 
TABS,ioos:station:wmo:42045:1,2019-10-16T23:30:00Z,26.2168,-96.4998,4.0,10.29,20.3,12.74,'11111222,11111222,11111222' 
TABS,ioos:station:wmo:42045:1,2019-10-17T04:00:00Z,26.2168,-96.4998,4.0,6.63,1.1,7.84,'11111222,11111222,11111222' 
TABS,ioos:station:wmo:42045:1,2019-10-17T05:00:00Z,26.2168,-96.4998,4.0,7.41,14.3,9.28,'11111222,11111222,11111222' 
TABS,ioos:station:wmo:42045:1,2019-10-17T06:00:00Z,26.2168,-96.4998,4.0,6.23,25.4,7.83,'11111222,11111222,11111222' 
TABS,ioos:station:wmo:42045:1,2019-10-17T07:00:00Z,26.2168,-96.4998,4.0,6.02,63.2,7.33,'11111222,11111222,11111222' 
TABS,ioos:station:wmo:42045:1,2019-10-17T08:00:00Z,26.2168,-96.4998,4.0,5.31,72.5,6.58,'11111222,11111222,11111222' 
TABS,ioos:station:wmo:42045:1,2019-10-17T08:30:00Z,26.2168,-96.4998,4.0,4.86,61.3,6.16,'11111222,11111222,11111222' 
TABS,ioos:station:wmo:42045:1,2019-10-17T10:00:00Z,26.2168,-96.4998,4.0,5.11,102.5,6.36,'11111222,11111222,11111222' 
TABS,ioos:station:wmo:42045:1,2019-10-17T11:00:00Z,26.2168,-96.4998,4.0,2.64,49.2,3.52,'11111222,11111222,11111222' 
TABS,ioos:station:wmo:42045:1,2019-10-17T12:00:00Z,26.2168,-96.4998,4.0,8.77,28.5,11.27,'11111222,11111222,11111222' 
TABS,ioos:station:wmo:42045:1,2019-10-17T13:00:00Z,26.2168,-96.4998,4.0,11.11,25.5,13.46,'11111222,11111222,11111222' 
TABS,ioos:station:wmo:42045:1,2019-10-17T14:00:00Z,26.2168,-96.4998,4.0,11.2,15.3,13.66,'11111222,11111222,11111222' 
TABS,ioos:station:wmo:42045:1,2019-10-17T14:30:00Z,26.2168,-96.4998,4.0,9.65,2.8,11.88,'11111222,11111222,11111222' 
TABS,ioos:station:wmo:42045:1,2019-10-17T16:00:00Z,26.2168,-96.4998,4.0,5.65,19.6,13.47,'11111222,11111222,11111222' 
TABS,ioos:station:wmo:42045:1,2019-10-17T17:00:00Z,26.2168,-96.4998,4.0,7.26,358.6,12.33,'11111222,11111222,11111222' 
TABS,ioos:station:wmo:42045:1,2019-10-17T18:00:00Z,26.2168,-96.4998,4.0,9.41,12.6,11.75,'11111222,11111222,11111222' 
TABS,ioos:station:wmo:42045:1,2019-10-17T19:00:00Z,26.2168,-96.4998,4.0,10.91,28.9,13.59,'11111222,11111222,11111222' 
TABS,ioos:station:wmo:42045:1,2019-10-17T20:00:00Z,26.2168,-96.4998,4.0,8.39,24.2,11.09,'11111222,11111222,11111222' 
TABS,ioos:station:wmo:42045:1,2019-10-17T21:00:00Z,26.2168,-96.4998,4.0,9.4,44.4,11.38,'11111222,11111222,11111222' 
TABS,ioos:station:wmo:42045:1,2019-10-17T22:00:00Z,26.2168,-96.4998,4.0,8.32,72.6,9.92,'11111222,11111222,11111222' 
TABS,ioos:station:wmo:42045:1,2019-10-17T23:00:00Z,26.2168,-96.4998,4.0,9.49,51.8,11.91,'11111222,11111222,11111222' 
TABS,ioos:station:wmo:42045:1,2019-10-17T23:30:00Z,26.2168,-96.4998,4.0,9.14,52.5,10.99,'11111222,11111222,11111222' 
TABS,ioos:station:wmo:42045:1,2019-10-18T04:00:00Z,26.2168,-96.4998,4.0,6.82,46.4,8.82,'11111222,11111222,11111222' 
TABS,ioos:station:wmo:42045:1,2019-10-18T05:00:00Z,26.2168,-96.4998,4.0,6.71,30.3,8.33,'11111222,11111222,11111222' 
TABS,ioos:station:wmo:42045:1,2019-10-18T06:00:00Z,26.2168,-96.4998,4.0,6.42,20.0,8.41,'11111222,11111222,11111222' 
TABS,ioos:station:wmo:42045:1,2019-10-18T07:00:00Z,26.2168,-96.4998,4.0,6.29,9.4,7.98,'11111222,11111222,11111222' 
TABS,ioos:station:wmo:42045:1,2019-10-18T08:00:00Z,26.2168,-96.4998,4.0,8.42,353.4,10.63,'11111222,11111222,11111222' 
TABS,ioos:station:wmo:42045:1,2019-10-18T08:30:00Z,26.2168,-96.4998,4.0,9.05,1.1,11.48,'11111222,11111222,11111222' 
TABS,ioos:station:wmo:42045:1,2019-10-18T10:00:00Z,26.2168,-96.4998,4.0,8.66,14.4,10.61,'11111222,11111222,11111222' 
TABS,ioos:station:wmo:42045:1,2019-10-18T11:00:00Z,26.2168,-96.4998,4.0,8.45,11.6,10.17,'11111222,11111222,11111222' 
TABS,ioos:station:wmo:42045:1,2019-10-18T12:00:00Z,26.2168,-96.4998,4.0,8.18,18.7,10.21,'11111222,11111222,11111222' 
TABS,ioos:station:wmo:42045:1,2019-10-18T13:00:00Z,26.2168,-96.4998,4.0,7.59,19.4,9.51,'11111222,11111222,11111222' 
TABS,ioos:station:wmo:42045:1,2019-10-18T14:00:00Z,26.2168,-96.4998,4.0,6.92,38.3,8.66,'11111222,11111222,11111222' 
TABS,ioos:station:wmo:42045:1,2019-10-18T15:00:00Z,26.2168,-96.4998,4.0,7.39,39.5,8.66,'11111222,11111222,11111222' 
TABS,ioos:station:wmo:42045:1,2019-10-18T16:00:00Z,26.2168,-96.4998,4.0,6.57,48.3,8.0,'11111222,11111222,11111222' 
TABS,ioos:station:wmo:42045:1,2019-10-18T17:00:00Z,26.2168,-96.4998,4.0,6.03,44.2,7.59,'11111222,11111222,11111222' 
TABS,ioos:station:wmo:42045:1,2019-10-18T18:00:00Z,26.2168,-96.4998,4.0,5.46,57.0,6.88,'11111222,11111222,11111222' 
TABS,ioos:station:wmo:42045:1,2019-10-18T19:00:00Z,26.2168,-96.4998,4.0,4.95,60.0,6.42,'11111222,11111222,11111222' 
TABS,ioos:station:wmo:42045:1,2019-10-18T20:00:00Z,26.2168,-96.4998,4.0,3.98,61.5,5.04,'11111222,11111222,11111222' 
TABS,ioos:station:wmo:42045:1,2019-10-18T21:00:00Z,26.2168,-96.4998,4.0,3.52,57.8,4.72,'11111222,11111222,11111222' 
TABS,ioos:station:wmo:42045:1,2019-10-18T22:00:00Z,26.2168,-96.4998,4.0,3.95,70.6,5.6,'11111222,11111222,11111222' 
TABS,ioos:station:wmo:42045:1,2019-10-18T23:00:00Z,26.2168,-96.4998,4.0,4.47,85.8,5.44,'11111222,11111222,11111222' 
TABS,ioos:station:wmo:42045:1,2019-10-18T23:30:00Z,26.2168,-96.4998,4.0,4.78,85.0,6.12,'11111222,11111222,11111222' 
TABS,ioos:station:wmo:42045:1,2019-10-19T04:00:00Z,26.2168,-96.4998,4.0,6.15,132.7,7.79,'11111222,11111222,11111222' 
TABS,ioos:station:wmo:42045:1,2019-10-19T04:30:00Z,26.2168,-96.4998,4.0,6.2,133.3,7.74,'11111222,11111222,11111222' 
TABS,ioos:station:wmo:42045:1,2019-10-19T06:00:00Z,26.2168,-96.4998,4.0,6.26,153.9,7.76,'11111222,11111222,11111222' 
TABS,ioos:station:wmo:42045:1,2019-10-19T07:00:00Z,26.2168,-96.4998,4.0,5.75,155.2,7.09,'11111222,11111222,11111222' 
TABS,ioos:station:wmo:42045:1,2019-10-19T08:00:00Z,26.2168,-96.4998,4.0,5.13,166.0,6.29,'11111222,11111222,11111222' 
TABS,ioos:station:wmo:42045:1,2019-10-19T09:00:00Z,26.2168,-96.4998,4.0,4.93,168.9,6.43,'11111222,11111222,11111222' 
TABS,ioos:station:wmo:42045:1,2019-10-19T10:00:00Z,26.2168,-96.4998,4.0,5.6,167.6,6.7,'11111222,11111222,11111222' 
TABS,ioos:station:wmo:42045:1,2019-10-19T10:30:00Z,26.2168,-96.4998,4.0,5.64,162.7,7.21,'11111222,11111222,11111222' 
TABS,ioos:station:wmo:42045:1,2019-10-19T12:00:00Z,26.2168,-96.4998,4.0,6.16,176.9,7.64,'11111222,11111222,11111222' 
TABS,ioos:station:wmo:42045:1,2019-10-19T13:00:00Z,26.2168,-96.4998,4.0,5.55,184.2,6.92,'11111222,11111222,11111222' 
TABS,ioos:station:wmo:42045:1,2019-10-19T14:00:00Z,26.2168,-96.4998,4.0,5.34,181.2,6.92,'11111222,11111222,11111222' 
TABS,ioos:station:wmo:42045:1,2019-10-19T15:00:00Z,26.2168,-96.4998,4.0,5.54,181.4,6.75,'11111222,11111222,11111222' 
TABS,ioos:station:wmo:42045:1,2019-10-19T16:00:00Z,26.2168,-96.4998,4.0,4.72,167.5,5.89,'11111222,11111222,11111222' 
TABS,ioos:station:wmo:42045:1,2019-10-19T16:30:00Z,26.2168,-96.4998,4.0,4.33,168.7,5.21,'11111222,11111222,11111222' 
TABS,ioos:station:wmo:42045:1,2019-10-19T18:00:00Z,26.2168,-96.4998,4.0,2.93,159.3,3.84,'11111222,11111222,11111222' 
TABS,ioos:station:wmo:42045:1,2019-10-19T19:00:00Z,26.2168,-96.4998,4.0,2.39,148.5,4.0,'11111222,11111222,11111222' 
TABS,ioos:station:wmo:42045:1,2019-10-19T20:00:00Z,26.2168,-96.4998,4.0,3.14,174.6,3.84,'11111222,11111222,11111222' 
TABS,ioos:station:wmo:42045:1,2019-10-19T21:00:00Z,26.2168,-96.4998,4.0,3.83,169.6,5.04,'11111222,11111222,11111222' 
TABS,ioos:station:wmo:42045:1,2019-10-19T22:00:00Z,26.2168,-96.4998,4.0,4.76,172.4,5.89,'11111222,11111222,11111222' 
TABS,ioos:station:wmo:42045:1,2019-10-19T23:00:00Z,26.2168,-96.4998,4.0,4.97,173.2,6.07,'11111222,11111222,11111222' 
TABS,ioos:station:wmo:42045:1,2019-10-21T22:00:00Z,26.2168,-96.4998,4.0,8.64,25.8,9.87,'11111222,11111222,11111222' 
TABS,ioos:station:wmo:42045:1,2019-10-21T23:00:00Z,26.2168,-96.4998,4.0,6.61,43.2,7.6,'11111222,11111222,11111222' 
TABS,ioos:station:wmo:42045:1,2019-10-21T23:30:00Z,26.2168,-96.4998,4.0,6.52,39.4,8.0,'11111222,11111222,11111222' 
TABS,ioos:station:wmo:42045:1,2019-10-22T03:30:00Z,26.2168,-96.4998,4.0,9.43,48.6,10.96,'11111222,11111222,11111222' 
TABS,ioos:station:wmo:42045:1,2019-10-22T05:00:00Z,26.2168,-96.4998,4.0,9.57,49.1,11.46,'11111222,11111222,11111222' 
TABS,ioos:station:wmo:42045:1,2019-10-22T06:00:00Z,26.2168,-96.4998,4.0,9.77,50.1,11.62,'11111222,11111222,11111222' 
TABS,ioos:station:wmo:42045:1,2019-10-22T07:00:00Z,26.2168,-96.4998,4.0,8.79,55.0,10.37,'11111222,11111222,11111222' 
TABS,ioos:station:wmo:42045:1,2019-10-22T08:00:00Z,26.2168,-96.4998,4.0,8.57,50.8,10.64,'11111222,11111222,11111222' 
TABS,ioos:station:wmo:42045:1,2019-10-22T09:00:00Z,26.2168,-96.4998,4.0,9.51,44.7,11.76,'11111222,11111222,11111222' 
TABS,ioos:station:wmo:42045:1,2019-10-22T10:00:00Z,26.2168,-96.4998,4.0,9.85,45.3,11.88,'11111222,11111222,11111222' 
TABS,ioos:station:wmo:42045:1,2019-10-22T11:00:00Z,26.2168,-96.4998,4.0,10.14,51.4,12.25,'11111222,11111222,11111222' 
TABS,ioos:station:wmo:42045:1,2019-10-22T12:00:00Z,26.2168,-96.4998,4.0,11.21,50.9,13.51,'11111222,11111222,11111222' 
TABS,ioos:station:wmo:42045:1,2019-10-22T13:00:00Z,26.2168,-96.4998,4.0,11.03,61.2,13.57,'11111222,11111222,11111222' 
TABS,ioos:station:wmo:42045:1,2019-10-22T14:00:00Z,26.2168,-96.4998,4.0,10.29,60.4,12.92,'11111222,11111222,11111222' 
TABS,ioos:station:wmo:42045:1,2019-10-22T15:00:00Z,26.2168,-96.4998,4.0,10.57,62.0,12.68,'11111222,11111222,11111222' 
TABS,ioos:station:wmo:42045:1,2019-10-22T16:00:00Z,26.2168,-96.4998,4.0,10.65,64.4,12.76,'11111222,11111222,11111222' 
TABS,ioos:station:wmo:42045:1,2019-10-22T16:30:00Z,26.2168,-96.4998,4.0,10.62,69.1,13.23,'11111222,11111222,11111222' 
TABS,ioos:station:wmo:42045:1,2019-10-22T17:30:00Z,26.2168,-96.4998,4.0,10.07,72.0,13.4,'11111222,11111222,11111222' 
TABS,ioos:station:wmo:42045:1,2019-10-22T19:30:00Z,26.2168,-96.4998,4.0,10.09,75.1,12.49,'11111222,11111222,11111222' 
TABS,ioos:station:wmo:42045:1,2019-10-22T20:30:00Z,26.2168,-96.4998,4.0,10.29,80.8,12.75,'11111222,11111222,11111222' 
TABS,ioos:station:wmo:42045:1,2019-10-22T22:00:00Z,26.2168,-96.4998,4.0,9.49,81.5,12.08,'11111222,11111222,11111222' 
TABS,ioos:station:wmo:42045:1,2019-10-22T23:00:00Z,26.2168,-96.4998,4.0,9.64,70.3,11.67,'11111222,11111222,11111222' 
TABS,ioos:station:wmo:42045:1,2019-10-22T23:30:00Z,26.2168,-96.4998,4.0,10.0,69.3,12.55,'11111222,11111222,11111222' 
TABS,ioos:station:wmo:42045:1,2019-10-23T02:00:00Z,26.2168,-96.4998,4.0,9.31,80.6,11.65,'11111222,11111222,11111222' 
TABS,ioos:station:wmo:42045:1,2019-10-23T22:00:00Z,26.2168,-96.4998,4.0,7.5,123.9,9.1,'11111222,11111222,11111222' 
TABS,ioos:station:wmo:42045:1,2019-10-23T23:00:00Z,26.2168,-96.4998,4.0,7.26,122.5,8.94,'11111222,11111222,11111222' 
TABS,ioos:station:wmo:42045:1,2019-10-23T23:30:00Z,26.2168,-96.4998,4.0,7.4,126.9,8.76,'11111222,11111222,11111222' 
TABS,ioos:station:wmo:42045:1,2019-10-24T04:00:00Z,26.2168,-96.4998,4.0,6.51,129.8,8.11,'11111222,11111222,11111222' 
TABS,ioos:station:wmo:42045:1,2019-10-24T05:00:00Z,26.2168,-96.4998,4.0,6.08,128.1,7.33,'11111222,11111222,11111222' 
TABS,ioos:station:wmo:42045:1,2019-10-24T06:00:00Z,26.2168,-96.4998,4.0,5.79,126.3,7.06,'11111222,11111222,11111222' 
TABS,ioos:station:wmo:42045:1,2019-10-24T07:00:00Z,26.2168,-96.4998,4.0,5.53,120.2,6.61,'11111222,11111222,11111222' 
TABS,ioos:station:wmo:42045:1,2019-10-24T08:00:00Z,26.2168,-96.4998,4.0,6.58,120.3,7.77,'11111222,11111222,11111222' 
TABS,ioos:station:wmo:42045:1,2019-10-24T09:00:00Z,26.2168,-96.4998,4.0,6.55,112.7,8.4,'11111222,11111222,11111222' 
TABS,ioos:station:wmo:42045:1,2019-10-24T10:00:00Z,26.2168,-96.4998,4.0,6.14,110.7,7.58,'11111222,11111222,11111222' 
TABS,ioos:station:wmo:42045:1,2019-10-24T11:00:00Z,26.2168,-96.4998,4.0,7.27,131.3,9.92,'11111222,11111222,11111222' 
TABS,ioos:station:wmo:42045:1,2019-10-24T14:00:00Z,26.2168,-96.4998,4.0,6.4,130.8,7.68,'11111222,11111222,11111222' 
TABS,ioos:station:wmo:42045:1,2019-10-24T15:00:00Z,26.2168,-96.4998,4.0,6.29,126.4,8.38,'11111222,11111222,11111222' 
TABS,ioos:station:wmo:42045:1,2019-10-24T16:00:00Z,26.2168,-96.4998,4.0,5.28,90.6,6.84,'11111222,11111222,11111222' 
TABS,ioos:station:wmo:42045:1,2019-10-24T17:00:00Z,26.2168,-96.4998,4.0,9.14,171.9,10.93,'11111222,11111222,11111222' 
TABS,ioos:station:wmo:42045:1,2019-10-24T18:00:00Z,26.2168,-96.4998,4.0,5.7,148.1,6.97,'11111222,11111222,11111222' 
TABS,ioos:station:wmo:42045:1,2019-10-24T19:00:00Z,26.2168,-96.4998,4.0,4.92,126.0,5.96,'11111222,11111222,11111222' 
TABS,ioos:station:wmo:42045:1,2019-10-24T20:00:00Z,26.2168,-96.4998,4.0,4.95,106.5,5.95,'11111222,11111222,11111222' 
TABS,ioos:station:wmo:42045:1,2019-10-24T21:00:00Z,26.2168,-96.4998,4.0,5.48,122.4,6.78,'11111222,11111222,11111222' 
TABS,ioos:station:wmo:42045:1,2019-10-24T22:00:00Z,26.2168,-96.4998,4.0,6.0,132.2,7.44,'11111222,11111222,11111222' 
TABS,ioos:station:wmo:42045:1,2019-10-24T23:00:00Z,26.2168,-96.4998,4.0,6.05,117.8,7.57,'11111222,11111222,11111222' 
TABS,ioos:station:wmo:42045:1,2019-10-24T23:30:00Z,26.2168,-96.4998,4.0,6.3,126.1,7.69,'11111222,11111222,11111222' 
TABS,ioos:station:wmo:42045:1,2019-10-25T04:00:00Z,26.2168,-96.4998,4.0,7.14,132.2,8.93,'11111222,11111222,11111222' 
TABS,ioos:station:wmo:42045:1,2019-10-25T05:00:00Z,26.2168,-96.4998,4.0,7.41,141.9,8.98,'11111222,11111222,11111222' 
TABS,ioos:station:wmo:42045:1,2019-10-25T06:00:00Z,26.2168,-96.4998,4.0,6.96,135.3,9.12,'11111222,11111222,11111222' 
TABS,ioos:station:wmo:42045:1,2019-10-25T07:00:00Z,26.2168,-96.4998,4.0,5.36,113.4,6.58,'11111222,11111222,11111222' 
TABS,ioos:station:wmo:42045:1,2019-10-25T07:30:00Z,26.2168,-96.4998,4.0,3.24,113.7,4.73,'11111222,11111222,11111222' 
TABS,ioos:station:wmo:42045:1,2019-10-25T09:00:00Z,26.2168,-96.4998,4.0,1.05,163.0,2.06,'11111222,11111222,11111222' 
TABS,ioos:station:wmo:42045:1,2019-10-25T10:00:00Z,26.2168,-96.4998,4.0,12.44,334.2,17.25,'11111222,11111222,11111222' 
TABS,ioos:station:wmo:42045:1,2019-10-25T11:00:00Z,26.2168,-96.4998,4.0,13.61,334.8,17.39,'11111222,11111222,11111222' 
TABS,ioos:station:wmo:42045:1,2019-10-25T11:30:00Z,26.2168,-96.4998,4.0,13.66,329.7,16.61,'11111222,11111222,11111222' 
TABS,ioos:station:wmo:42045:1,2019-10-25T13:00:00Z,26.2168,-96.4998,4.0,13.54,333.7,16.64,'11111222,11111222,11111222' 
TABS,ioos:station:wmo:42045:1,2019-10-25T14:00:00Z,26.2168,-96.4998,4.0,13.6,338.6,16.91,'11111222,11111222,11111222' 
TABS,ioos:station:wmo:42045:1,2019-10-25T15:00:00Z,26.2168,-96.4998,4.0,13.61,334.3,16.65,'11111222,11111222,11111222' 
TABS,ioos:station:wmo:42045:1,2019-10-25T16:00:00Z,26.2168,-96.4998,4.0,12.75,337.6,15.42,'11111222,11111222,11111222' 
TABS,ioos:station:wmo:42045:1,2019-10-25T17:00:00Z,26.2168,-96.4998,4.0,12.68,331.3,15.67,'11111222,11111222,11111222' 
TABS,ioos:station:wmo:42045:1,2019-10-25T18:00:00Z,26.2168,-96.4998,4.0,12.45,325.2,15.54,'11111222,11111222,11111222' 
TABS,ioos:station:wmo:42045:1,2019-10-25T19:00:00Z,26.2168,-96.4998,4.0,12.07,327.1,14.92,'11111222,11111222,11111222' 
TABS,ioos:station:wmo:42045:1,2019-10-25T20:00:00Z,26.2168,-96.4998,4.0,11.47,329.6,14.19,'11111222,11111222,11111222' 
TABS,ioos:station:wmo:42045:1,2019-10-25T21:00:00Z,26.2168,-96.4998,4.0,11.55,323.5,14.21,'11111222,11111222,11111222' 
TABS,ioos:station:wmo:42045:1,2019-10-25T21:30:00Z,26.2168,-96.4998,4.0,11.16,319.0,13.41,'11111222,11111222,11111222' 
TABS,ioos:station:wmo:42045:1,2019-10-25T23:00:00Z,26.2168,-96.4998,4.0,12.35,310.5,15.11,'11111222,11111222,11111222' 
TABS,ioos:station:wmo:42045:1,2019-10-25T23:30:00Z,26.2168,-96.4998,4.0,12.58,316.6,15.15,'11111222,11111222,11111222' 
TABS,ioos:station:wmo:42045:1,2019-10-26T03:30:00Z,26.2168,-96.4998,4.0,11.87,327.6,15.57,'11111222,11111222,11111222' 
TABS,ioos:station:wmo:42045:1,2019-10-26T04:30:00Z,26.2168,-96.4998,4.0,11.95,324.5,14.38,'11111222,11111222,11111222' 
TABS,ioos:station:wmo:42045:1,2019-10-26T07:00:00Z,26.2168,-96.4998,4.0,11.83,319.8,14.54,'11111222,11111222,11111222' 
TABS,ioos:station:wmo:42045:1,2019-10-26T08:00:00Z,26.2168,-96.4998,4.0,11.69,322.2,14.54,'11111222,11111222,11111222' 
TABS,ioos:station:wmo:42045:1,2019-10-26T08:30:00Z,26.2168,-96.4998,4.0,11.51,325.3,14.29,'11111222,11111222,11111222' 
TABS,ioos:station:wmo:42045:1,2019-10-26T09:30:00Z,26.2168,-96.4998,4.0,11.2,316.1,13.31,'11111222,11111222,11111222' 
TABS,ioos:station:wmo:42045:1,2019-10-26T11:00:00Z,26.2168,-96.4998,4.0,10.98,309.5,13.25,'11111222,11111222,11111222' 
TABS,ioos:station:wmo:42045:1,2019-10-26T12:00:00Z,26.2168,-96.4998,4.0,10.29,315.1,12.66,'11111222,11111222,11111222' 
TABS,ioos:station:wmo:42045:1,2019-10-26T12:30:00Z,26.2168,-96.4998,4.0,9.75,307.7,13.04,'11111222,11111222,11111222' 
TABS,ioos:station:wmo:42045:1,2019-10-26T15:00:00Z,26.2168,-96.4998,4.0,8.75,316.6,11.32,'11111222,11111222,11111222' 
TABS,ioos:station:wmo:42045:1,2019-10-26T15:30:00Z,26.2168,-96.4998,4.0,7.97,310.7,10.04,'11111222,11111222,11111222' 
TABS,ioos:station:wmo:42045:1,2019-10-26T16:30:00Z,26.2168,-96.4998,4.0,7.39,320.3,9.97,'11111222,11111222,11111222' 
TABS,ioos:station:wmo:42045:1,2019-10-26T17:30:00Z,26.2168,-96.4998,4.0,6.9,322.2,8.66,'11111222,11111222,11111222' 
TABS,ioos:station:wmo:42045:1,2019-10-26T20:00:00Z,26.2168,-96.4998,4.0,5.81,299.2,8.0,'11111222,11111222,11111222' 
TABS,ioos:station:wmo:42045:1,2019-10-26T20:30:00Z,26.2168,-96.4998,4.0,6.07,299.9,8.13,'11111222,11111222,11111222' 
TABS,ioos:station:wmo:42045:1,2019-10-26T22:00:00Z,26.2168,-96.4998,4.0,5.6,311.9,7.76,'11111222,11111222,11111222' 
TABS,ioos:station:wmo:42045:1,2019-10-26T23:00:00Z,26.2168,-96.4998,4.0,4.41,309.2,6.36,'11111222,11111222,11111222' 
TABS,ioos:station:wmo:42045:1,2019-10-26T23:30:00Z,26.2168,-96.4998,4.0,3.69,314.1,5.47,'11111222,11111222,11111222' 
TABS,ioos:station:wmo:42045:1,2019-10-27T04:00:00Z,26.2168,-96.4998,4.0,1.05,193.6,2.53,'11111222,11111222,11111222' 
TABS,ioos:station:wmo:42045:1,2019-10-27T05:00:00Z,26.2168,-96.4998,4.0,1.56,195.0,2.72,'11111222,11111222,11111222' 
TABS,ioos:station:wmo:42045:1,2019-10-27T06:00:00Z,26.2168,-96.4998,4.0,1.35,176.4,2.74,'11111222,11111222,11111222' 
TABS,ioos:station:wmo:42045:1,2019-10-27T07:00:00Z,26.2168,-96.4998,4.0,2.63,163.6,4.6,'11111222,11111222,11111222' 
TABS,ioos:station:wmo:42045:1,2019-10-27T08:00:00Z,26.2168,-96.4998,4.0,2.65,174.4,4.28,'11111222,11111222,11111222' 
TABS,ioos:station:wmo:42045:1,2019-10-27T09:00:00Z,26.2168,-96.4998,4.0,3.46,156.9,4.82,'11111222,11111222,11111222' 
TABS,ioos:station:wmo:42045:1,2019-10-27T10:00:00Z,26.2168,-96.4998,4.0,3.69,150.2,5.24,'11111222,11111222,11111222' 
TABS,ioos:station:wmo:42045:1,2019-10-27T11:00:00Z,26.2168,-96.4998,4.0,3.99,153.8,5.62,'11111222,11111222,11111222' 
TABS,ioos:station:wmo:42045:1,2019-10-27T12:00:00Z,26.2168,-96.4998,4.0,4.35,153.2,5.77,'11111222,11111222,11111222' 
TABS,ioos:station:wmo:42045:1,2019-10-27T13:00:00Z,26.2168,-96.4998,4.0,4.02,151.5,5.46,'11111222,11111222,11111222' 
TABS,ioos:station:wmo:42045:1,2019-10-27T14:00:00Z,26.2168,-96.4998,4.0,3.63,154.2,4.74,'11111222,11111222,11111222' 
TABS,ioos:station:wmo:42045:1,2019-10-27T15:00:00Z,26.2168,-96.4998,4.0,3.53,159.0,4.93,'11111222,11111222,11111222' 
TABS,ioos:station:wmo:42045:1,2019-10-27T16:00:00Z,26.2168,-96.4998,4.0,2.87,143.9,4.49,'11111222,11111222,11111222' 
TABS,ioos:station:wmo:42045:1,2019-10-27T17:00:00Z,26.2168,-96.4998,4.0,2.19,120.9,3.25,'11111222,11111222,11111222' 
TABS,ioos:station:wmo:42045:1,2019-10-27T18:00:00Z,26.2168,-96.4998,4.0,2.55,128.3,4.31,'11111222,11111222,11111222' 
TABS,ioos:station:wmo:42045:1,2019-10-27T19:00:00Z,26.2168,-96.4998,4.0,3.22,131.1,4.23,'11111222,11111222,11111222' 
TABS,ioos:station:wmo:42045:1,2019-10-27T20:00:00Z,26.2168,-96.4998,4.0,3.53,146.2,5.05,'11111222,11111222,11111222' 
TABS,ioos:station:wmo:42045:1,2019-10-27T21:00:00Z,26.2168,-96.4998,4.0,3.79,130.3,4.76,'11111222,11111222,11111222' 
TABS,ioos:station:wmo:42045:1,2019-10-27T22:00:00Z,26.2168,-96.4998,4.0,4.02,132.7,5.19,'11111222,11111222,11111222' 
TABS,ioos:station:wmo:42045:1,2019-10-27T23:00:00Z,26.2168,-96.4998,4.0,4.51,136.6,6.11,'11111222,11111222,11111222' 
TABS,ioos:station:wmo:42045:1,2019-10-27T23:30:00Z,26.2168,-96.4998,4.0,4.8,125.1,6.16,'11111222,11111222,11111222' 
TABS,ioos:station:wmo:42045:1,2019-10-28T04:00:00Z,26.2168,-96.4998,4.0,5.55,146.9,6.92,'11111222,11111222,11111222' 
TABS,ioos:station:wmo:42045:1,2019-10-28T05:00:00Z,26.2168,-96.4998,4.0,6.58,149.0,7.99,'11111222,11111222,11111222' 
TABS,ioos:station:wmo:42045:1,2019-10-28T06:00:00Z,26.2168,-96.4998,4.0,6.15,151.4,7.83,'11111222,11111222,11111222' 
TABS,ioos:station:wmo:42045:1,2019-10-28T07:00:00Z,26.2168,-96.4998,4.0,6.4,158.2,7.87,'11111222,11111222,11111222' 
TABS,ioos:station:wmo:42045:1,2019-10-28T08:00:00Z,26.2168,-96.4998,4.0,5.82,153.7,7.4,'11111222,11111222,11111222' 
TABS,ioos:station:wmo:42045:1,2019-10-28T09:00:00Z,26.2168,-96.4998,4.0,5.51,163.9,7.05,'11111222,11111222,11111222' 
TABS,ioos:station:wmo:42045:1,2019-10-28T10:00:00Z,26.2168,-96.4998,4.0,5.61,158.4,6.62,'11111222,11111222,11111222' 
TABS,ioos:station:wmo:42045:1,2019-10-28T11:00:00Z,26.2168,-96.4998,4.0,5.95,162.0,7.32,'11111222,11111222,11111222' 
TABS,ioos:station:wmo:42045:1,2019-10-28T12:00:00Z,26.2168,-96.4998,4.0,5.22,157.5,6.37,'11111222,11111222,11111222' 
TABS,ioos:station:wmo:42045:1,2019-10-28T13:00:00Z,26.2168,-96.4998,4.0,5.14,152.5,6.56,'11111222,11111222,11111222' 
TABS,ioos:station:wmo:42045:1,2019-10-28T14:00:00Z,26.2168,-96.4998,4.0,5.3,151.6,6.65,'11111222,11111222,11111222' 
TABS,ioos:station:wmo:42045:1,2019-10-28T15:00:00Z,26.2168,-96.4998,4.0,4.67,139.9,5.86,'11111222,11111222,11111222' 
TABS,ioos:station:wmo:42045:1,2019-10-28T16:00:00Z,26.2168,-96.4998,4.0,3.99,135.9,5.16,'11111222,11111222,11111222' 
TABS,ioos:station:wmo:42045:1,2019-10-28T16:30:00Z,26.2168,-96.4998,4.0,3.72,129.5,4.95,'11111222,11111222,11111222' 
TABS,ioos:station:wmo:42045:1,2019-10-28T17:30:00Z,26.2168,-96.4998,4.0,4.04,123.7,5.05,'11111222,11111222,11111222' 
TABS,ioos:station:wmo:42045:1,2019-10-28T18:30:00Z,26.2168,-96.4998,4.0,4.2,124.1,5.34,'11111222,11111222,11111222' 
TABS,ioos:station:wmo:42045:1,2019-10-28T20:00:00Z,26.2168,-96.4998,4.0,4.15,128.8,5.26,'11111222,11111222,11111222' 
TABS,ioos:station:wmo:42045:1,2019-10-28T21:00:00Z,26.2168,-96.4998,4.0,4.77,128.1,5.85,'11111222,11111222,11111222' 
TABS,ioos:station:wmo:42045:1,2019-10-28T22:00:00Z,26.2168,-96.4998,4.0,4.79,118.5,5.88,'11111222,11111222,11111222' 
TABS,ioos:station:wmo:42045:1,2019-10-28T23:00:00Z,26.2168,-96.4998,4.0,5.0,114.3,6.07,'11111222,11111222,11111222' 
TABS,ioos:station:wmo:42045:1,2019-10-28T23:30:00Z,26.2168,-96.4998,4.0,5.22,114.9,6.7,'11111222,11111222,11111222' 
TABS,ioos:station:wmo:42045:1,2019-10-29T03:00:00Z,26.2168,-96.4998,4.0,6.63,125.8,7.96,'11111222,11111222,11111222' 
TABS,ioos:station:wmo:42045:1,2019-10-29T05:00:00Z,26.2168,-96.4998,4.0,6.81,139.7,8.61,'11111222,11111222,11111222' 